User: anonymous   Login
Location: C�an Torras
(41.5052°N, 1.9280°E)
Time: 08:51:09
(UTC+00:00)
Language:

Cosmos 2279 Rocket - Orbit

View from above orbital plane
View from above orbital plane
View from above satellite
View from above satellite

Ground track
Ground track

The orbit data is extracted from the following two-line orbital elements,

1 23093U 94024B   21102.49343111  .00000098  00000-0  83007-4 0  9997
2 23093  82.9465 156.5813 0011350  58.6821 301.5446 13.77850944823321
Epoch (UTC): 12 April 2021 11:50:32
Eccentricity: 0.0011350
inclination: 82.9465°
perigee height: 963 km
apogee height: 980 km
right ascension of ascending node: 156.5813°
argument of perigee: 58.6821°
revolutions per day: 13.77850944
mean anomaly at epoch: 301.5446°
orbit number at epoch: 82332

The dashed part of the orbit path shows where the satellite is in the earth's shadow,  

DLR